| time (UTC) | temp C | wind direction | speed KPH | gust KPH | rain 1hr cm | rain 24hr cm | rain mn cm | humidity % | barometer mb |
| 20260509185507 | 35 | 218 | 14.5 | 24.1 | 0.00 | 0.00 | 0.00 | 47 | 1013.0 |
| 20260509185009 | 35 | 186 | 11.3 | 22.5 | 0.00 | 0.00 | 0.00 | 47 | 1013.1 |
| 20260509184529 | 35 | 194 | 9.7 | 20.9 | 0.00 | 0.00 | 0.00 | 47 | 1013.1 |
| 20260509184008 | 35 | 204 | 11.3 | 22.5 | 0.00 | 0.00 | 0.00 | 48 | 1013.3 |
| 20260509183016 | 36 | 188 | 6.4 | 25.7 | 0.00 | 0.00 | 0.00 | 41 | 1013.2 |
| 20260509182504 | 36 | 219 | 16.1 | 25.7 | 0.00 | 0.00 | 0.00 | 44 | 1013.3 |
| 20260509182007 | 36 | 176 | 9.7 | 24.1 | 0.00 | 0.00 | 0.00 | 47 | 1013.2 |
| 20260509181514 | 36 | 223 | 9.7 | 24.1 | 0.00 | 0.00 | 0.00 | 46 | 1013.4 |
| 20260509181007 | 36 | 237 | 9.7 | 24.1 | 0.00 | 0.00 | 0.00 | 44 | 1013.3 |
| 20260509180508 | 36 | 207 | 6.4 | 22.5 | 0.00 | 0.00 | 0.00 | 45 | 1013.4 |
| 20260509175505 | 36 | 197 | 9.7 | 25.7 | 0.00 | 0.00 | 0.00 | 46 | 1013.3 |
| 20260509174524 | 36 | 223 | 9.7 | 25.7 | 0.00 | 0.00 | 0.00 | 50 | 1013.5 |
| 20260509174005 | 35 | 192 | 8.0 | 25.7 | 0.00 | 0.00 | 0.00 | 47 | 1013.6 |
| 20260509173506 | 36 | 182 | 16.1 | 25.7 | 0.00 | 0.00 | 0.00 | 47 | 1013.7 |
| 20260509173024 | 35 | 191 | 11.3 | 27.4 | 0.00 | 0.00 | 0.00 | 51 | 1013.8 |
| 20260509172512 | 35 | 180 | 9.7 | 27.4 | 0.00 | 0.00 | 0.00 | 47 | 1013.8 |
| 20260509171520 | 34 | 209 | 11.3 | 22.5 | 0.00 | 0.00 | 0.00 | 52 | 1013.9 |
| 20260509171006 | 34 | 205 | 11.3 | 22.5 | 0.00 | 0.00 | 0.00 | 49 | 1014.0 |
| 20260509170504 | 34 | 209 | 12.9 | 20.9 | 0.00 | 0.00 | 0.00 | 51 | 1014.0 |
| 20260509165508 | 33 | 210 | 12.9 | 27.4 | 0.00 | 0.00 | 0.00 | 51 | 1014.0 |
| 20260509165008 | 33 | 211 | 9.7 | 27.4 | 0.00 | 0.00 | 0.00 | 52 | 1013.9 |
| 20260509164519 | 33 | 230 | 12.9 | 22.5 | 0.00 | 0.00 | 0.00 | 51 | 1014.1 |
| 20260509164009 | 33 | 163 | 8.0 | 25.7 | 0.00 | 0.00 | 0.00 | 49 | 1014.2 |
| 20260509163513 | 33 | 178 | 14.5 | 25.7 | 0.00 | 0.00 | 0.00 | 48 | 1014.2 |
| 20260509163011 | 34 | 212 | 12.9 | 22.5 | 0.00 | 0.00 | 0.00 | 50 | 1014.1 |
| 20260509162507 | 34 | 161 | 14.5 | 22.5 | 0.00 | 0.00 | 0.00 | 49 | 1014.1 |
| 20260509162008 | 35 | 213 | 11.3 | 22.5 | 0.00 | 0.00 | 0.00 | 49 | 1014.1 |
| 20260509161524 | 35 | 205 | 12.9 | 22.5 | 0.00 | 0.00 | 0.00 | 48 | 1014.2 |
| 20260509160507 | 34 | 214 | 9.7 | 24.1 | 0.00 | 0.00 | 0.00 | 51 | 1014.4 |
| 20260509155503 | 34 | 223 | 12.9 | 24.1 | 0.00 | 0.00 | 0.00 | 49 | 1014.4 |
| 20260509155006 | 34 | 181 | 11.3 | 24.1 | 0.00 | 0.00 | 0.00 | 48 | 1014.5 |
| 20260509154522 | 33 | 215 | 9.7 | 22.5 | 0.00 | 0.00 | 0.00 | 49 | 1014.4 |
| 20260509154004 | 33 | 198 | 8.0 | 20.9 | 0.00 | 0.00 | 0.00 | 51 | 1014.6 |
| 20260509153504 | 33 | 168 | 8.0 | 17.7 | 0.00 | 0.00 | 0.00 | 51 | 1014.7 |
| 20260509153011 | 33 | 192 | 4.8 | 14.5 | 0.00 | 0.00 | 0.00 | 55 | 1014.8 |
| 20260509152504 | 32 | 101 | 6.4 | 16.1 | 0.00 | 0.00 | 0.00 | 55 | 1014.8 |
| 20260509152004 | 32 | 187 | 8.0 | 16.1 | 0.00 | 0.00 | 0.00 | 53 | 1014.9 |
| 20260509151507 | 32 | 169 | 11.3 | 20.9 | 0.00 | 0.00 | 0.00 | 53 | 1014.9 |
| 20260509151003 | 32 | 194 | 9.7 | 20.9 | 0.00 | 0.00 | 0.00 | 57 | 1015.0 |
| 20260509150504 | 32 | 156 | 6.4 | 17.7 | 0.00 | 0.00 | 0.00 | 59 | 1015.0 |
| 20260509150011 | 31 | 207 | 9.7 | 17.7 | 0.00 | 0.00 | 0.00 | 57 | 1015.0 |
| 20260509145503 | 31 | 176 | 6.4 | 17.7 | 0.00 | 0.00 | 0.00 | 62 | 1015.0 |
| 20260509145002 | 31 | 204 | 9.7 | 14.5 | 0.00 | 0.00 | 0.00 | 63 | 1015.0 |
| 20260509144519 | 31 | 213 | 6.4 | 14.5 | 0.00 | 0.00 | 0.00 | 61 | 1015.0 |
| 20260509144008 | 30 | 190 | 3.2 | 12.9 | 0.00 | 0.00 | 0.00 | 64 | 1015.0 |
| 20260509143504 | 30 | 189 | 6.4 | 12.9 | 0.00 | 0.00 | 0.00 | 66 | 1015.1 |
| 20260509143006 | 30 | 196 | 1.6 | 8.0 | 0.00 | 0.00 | 0.00 | 70 | 1015.0 |
| 20260509142503 | 29 | 166 | 3.2 | 11.3 | 0.00 | 0.00 | 0.00 | 67 | 1014.9 |
| 20260509142001 | 29 | 175 | 4.8 | 9.7 | 0.00 | 0.00 | 0.00 | 72 | 1014.8 |
| 20260509141508 | 28 | 198 | 1.6 | 9.7 | 0.00 | 0.00 | 0.00 | 72 | 1015.0 |
| 20260509141005 | 28 | 146 | 3.2 | 9.7 | 0.00 | 0.00 | 0.00 | 73 | 1015.0 |
| 20260509140503 | 28 | 118 | 1.6 | 8.0 | 0.00 | 0.00 | 0.00 | 75 | 1015.1 |
| 20260509140007 | 27 | 128 | 0.0 | 3.2 | 0.00 | 0.00 | 0.00 | 75 | 1015.1 |
| 20260509135507 | 27 | 290 | 0.0 | 8.0 | 0.00 | 0.00 | 0.00 | 74 | 1015.2 |
| 20260509135004 | 27 | 72 | 1.6 | 8.0 | 0.00 | 0.00 | 0.00 | 78 | 1015.2 |
| 20260509134504 | 27 | 65 | 1.6 | 6.4 | 0.00 | 0.00 | 0.00 | 79 | 1015.2 |
| 20260509134004 | 26 | 201 | 1.6 | 6.4 | 0.00 | 0.00 | 0.00 | 79 | 1015.2 |
| 20260509133510 | 26 | 67 | 1.6 | 6.4 | 0.00 | 0.00 | 0.00 | 81 | 1015.2 |
| 20260509133022 | 26 | 63 | 0.0 | 6.4 | 0.00 | 0.00 | 0.00 | 80 | 1015.1 |
| 20260509132503 | 26 | 54 | 0.0 | 4.8 | 0.00 | 0.00 | 0.00 | 83 | 1015.0 |
| 20260509132002 | 26 | 157 | 0.0 | 4.8 | 0.00 | 0.00 | 0.00 | 83 | 1015.0 |
| 20260509131003 | 25 | 9 | 1.6 | 6.4 | 0.00 | 0.00 | 0.00 | 83 | 1015.0 |
| 20260509130504 | 25 | 55 | 1.6 | 4.8 | 0.00 | 0.00 | 0.00 | 88 | 1015.0 |
| 20260509130006 | 24 | 98 | 1.6 | 4.8 | 0.00 | 0.00 | 0.00 | 88 | 1015.0 |
| 20260509125504 | 24 | 13 | 0.0 | 3.2 | 0.00 | 0.00 | 0.00 | 90 | 1015.0 |
| 20260509125006 | 23 | 64 | 0.0 | 0.0 | 0.00 | 0.00 | 0.00 | 91 | 1015.0 |
| 20260509124512 | 23 | 188 | 0.0 | 0.0 | 0.00 | 0.00 | 0.00 | 93 | 1015.0 |
| 20260509124004 | 23 | 192 | 0.0 | 0.0 | 0.00 | 0.00 | 0.00 | 93 | 1014.9 |
| 20260509123507 | 23 | 190 | 0.0 | 0.0 | 0.00 | 0.00 | 0.00 | 94 | 1014.9 |
| 20260509123008 | 23 | 190 | 0.0 | 0.0 | 0.00 | 0.00 | 0.00 | 95 | 1014.8 |
| 20260509122505 | 23 | 190 | 0.0 | 1.6 | 0.00 | 0.00 | 0.00 | 96 | 1014.9 |
| 20260509122007 | 22 | 189 | 0.0 | 1.6 | 0.00 | 0.00 | 0.00 | 96 | 1014.9 |
| 20260509121003 | 22 | 189 | 0.0 | 3.2 | 0.00 | 0.00 | 0.00 | 96 | 1014.5 |
| 20260509120503 | 22 | 189 | 0.0 | 3.2 | 0.00 | 0.00 | 0.00 | 96 | 1014.5 |
| 20260509120006 | 22 | 189 | 0.0 | 4.8 | 0.00 | 0.00 | 0.00 | 96 | 1014.3 |
| 20260509115503 | 22 | 189 | 0.0 | 4.8 | 0.00 | 0.00 | 0.00 | 96 | 1014.4 |
| 20260509115004 | 22 | 190 | 0.0 | 6.4 | 0.00 | 0.00 | 0.00 | 96 | 1014.5 |
| 20260509114508 | 22 | 189 | 3.2 | 6.4 | 0.00 | 0.00 | 0.00 | 96 | 1014.3 |
| 20260509114004 | 21 | 182 | 0.0 | 3.2 | 0.00 | 0.00 | 0.00 | 96 | 1014.3 |
| 20260509113504 | 21 | 183 | 0.0 | 3.2 | 0.00 | 0.00 | 0.00 | 96 | 1014.2 |
| 20260509113016 | 21 | 182 | 0.0 | 3.2 | 0.00 | 0.00 | 0.00 | 96 | 1014.0 |
| 20260509112507 | 21 | 183 | 0.0 | 3.2 | 0.00 | 0.00 | 0.00 | 95 | 1013.9 |
| 20260509112004 | 21 | 207 | 0.0 | 0.0 | 0.00 | 0.00 | 0.00 | 95 | 1013.9 |
| 20260509111513 | 20 | 207 | 0.0 | 0.0 | 0.00 | 0.00 | 0.00 | 95 | 1013.8 |
| 20260509111006 | 20 | 207 | 0.0 | 0.0 | 0.00 | 0.00 | 0.00 | 95 | 1013.8 |
| 20260509110500 | 20 | 185 | 0.0 | 0.0 | 0.00 | 0.00 | 0.00 | 94 | 1013.7 |
| 20260509110019 | 20 | 185 | 0.0 | 0.0 | 0.00 | 0.00 | 0.00 | 94 | 1013.7 |
| 20260509105503 | 20 | 185 | 0.0 | 0.0 | 0.00 | 0.00 | 0.00 | 94 | 1013.6 |
| 20260509105003 | 20 | 185 | 0.0 | 0.0 | 0.00 | 0.00 | 0.00 | 94 | 1013.7 |
| 20260509104508 | 20 | 185 | 0.0 | 0.0 | 0.00 | 0.00 | 0.00 | 94 | 1013.5 |
| 20260509104006 | 21 | 185 | 0.0 | 0.0 | 0.00 | 0.00 | 0.00 | 94 | 1013.4 |
| 20260509103502 | 21 | 185 | 0.0 | 0.0 | 0.00 | 0.00 | 0.00 | 94 | 1013.4 |
| 20260509103017 | 21 | 185 | 0.0 | 0.0 | 0.00 | 0.00 | 0.00 | 94 | 1013.4 |
| 20260509102505 | 21 | 185 | 0.0 | 0.0 | 0.00 | 0.00 | 0.00 | 94 | 1013.4 |
| 20260509102008 | 21 | 185 | 0.0 | 0.0 | 0.00 | 0.00 | 0.00 | 94 | 1013.4 |
| 20260509101520 | 21 | 185 | 0.0 | 0.0 | 0.00 | 0.00 | 0.00 | 94 | 1013.4 |
| 20260509101004 | 21 | 185 | 0.0 | 0.0 | 0.00 | 0.00 | 0.00 | 93 | 1013.4 |
| 20260509100503 | 21 | 185 | 0.0 | 3.2 | 0.00 | 0.00 | 0.00 | 94 | 1013.5 |
| 20260509100023 | 21 | 185 | 0.0 | 3.2 | 0.00 | 0.00 | 0.00 | 93 | 1013.7 |
| 20260509095507 | 21 | 185 | 1.6 | 3.2 | 0.00 | 0.00 | 0.00 | 93 | 1013.6 |
| 20260509095010 | 21 | 281 | 0.0 | 0.0 | 0.00 | 0.00 | 0.00 | 93 | 1013.5 |
| 20260509094521 | 21 | 281 | 0.0 | 0.0 | 0.00 | 0.00 | 0.00 | 93 | 1013.3 |
| 20260509094003 | 21 | 281 | 0.0 | 0.0 | 0.00 | 0.00 | 0.00 | 93 | 1013.5 |
| 20260509093504 | 21 | 281 | 0.0 | 0.0 | 0.00 | 0.00 | 0.00 | 93 | 1013.7 |
| 20260509093013 | 21 | 281 | 0.0 | 0.0 | 0.00 | 0.00 | 0.00 | 93 | 1013.5 |
| 20260509092507 | 21 | 281 | 0.0 | 0.0 | 0.00 | 0.00 | 0.00 | 93 | 1013.6 |
| 20260509092007 | 21 | 281 | 0.0 | 0.0 | 0.00 | 0.00 | 0.00 | 93 | 1013.6 |
| 20260509091512 | 21 | 281 | 0.0 | 4.8 | 0.00 | 0.00 | 0.00 | 94 | 1013.4 |
| 20260509091007 | 21 | 281 | 0.0 | 6.4 | 0.00 | 0.00 | 0.00 | 94 | 1013.6 |
| 20260509090507 | 21 | 287 | 3.2 | 6.4 | 0.00 | 0.00 | 0.00 | 93 | 1013.6 |
| 20260509090010 | 21 | 292 | 0.0 | 1.6 | 0.00 | 0.00 | 0.00 | 92 | 1013.8 |
| 20260509085503 | 21 | 291 | 0.0 | 0.0 | 0.00 | 0.00 | 0.00 | 91 | 1013.7 |
| 20260509085006 | 21 | 291 | 0.0 | 0.0 | 0.00 | 0.00 | 0.00 | 92 | 1013.7 |
| 20260509084533 | 21 | 291 | 0.0 | 0.0 | 0.00 | 0.00 | 0.00 | 92 | 1013.8 |
| 20260509084005 | 21 | 291 | 0.0 | 0.0 | 0.00 | 0.00 | 0.00 | 91 | 1013.7 |
| 20260509083033 | 21 | 291 | 0.0 | 0.0 | 0.00 | 0.00 | 0.00 | 91 | 1013.8 |
| 20260509082509 | 22 | 291 | 0.0 | 0.0 | 0.00 | 0.00 | 0.00 | 91 | 1013.8 |
| 20260509082006 | 22 | 291 | 0.0 | 0.0 | 0.00 | 0.00 | 0.00 | 91 | 1013.9 |
| 20260509081516 | 22 | 291 | 0.0 | 0.0 | 0.00 | 0.00 | 0.00 | 91 | 1013.9 |
| 20260509081008 | 22 | 291 | 0.0 | 0.0 | 0.00 | 0.00 | 0.00 | 90 | 1013.9 |
| 20260509080504 | 22 | 291 | 0.0 | 0.0 | 0.00 | 0.00 | 0.00 | 90 | 1013.9 |
| 20260509080032 | 22 | 291 | 0.0 | 0.0 | 0.00 | 0.00 | 0.00 | 90 | 1014.0 |
| 20260509075509 | 22 | 291 | 0.0 | 0.0 | 0.00 | 0.00 | 0.00 | 90 | 1014.1 |
| 20260509075007 | 22 | 291 | 0.0 | 0.0 | 0.00 | 0.00 | 0.00 | 90 | 1014.1 |
| 20260509074516 | 22 | 291 | 0.0 | 0.0 | 0.00 | 0.00 | 0.00 | 89 | 1014.1 |
| 20260509074007 | 22 | 291 | 0.0 | 0.0 | 0.00 | 0.00 | 0.00 | 90 | 1014.1 |
| 20260509073507 | 22 | 291 | 0.0 | 0.0 | 0.00 | 0.00 | 0.00 | 89 | 1014.1 |
| 20260509072508 | 23 | 292 | 0.0 | 0.0 | 0.00 | 0.00 | 0.00 | 88 | 1014.2 |
| 20260509072010 | 23 | 292 | 0.0 | 0.0 | 0.00 | 0.00 | 0.00 | 88 | 1014.1 |
| 20260509071513 | 23 | 292 | 0.0 | 3.2 | 0.00 | 0.00 | 0.00 | 88 | 1014.2 |
| 20260509071003 | 23 | 292 | 0.0 | 3.2 | 0.00 | 0.00 | 0.00 | 88 | 1014.2 |
| 20260509070504 | 23 | 292 | 0.0 | 3.2 | 0.00 | 0.00 | 0.00 | 88 | 1014.3 |
| 20260509070020 | 23 | 290 | 0.0 | 4.8 | 0.00 | 0.00 | 0.00 | 88 | 1014.3 |
| 20260509065505 | 23 | 290 | 0.0 | 6.4 | 0.00 | 0.00 | 0.00 | 87 | 1014.3 |
| 20260509065007 | 23 | 286 | 1.6 | 6.4 | 0.00 | 0.00 | 0.00 | 87 | 1014.4 |
| 20260509064525 | 23 | 305 | 0.0 | 4.8 | 0.00 | 0.00 | 0.00 | 87 | 1014.5 |
| 20260509064008 | 23 | 305 | 0.0 | 4.8 | 0.00 | 0.00 | 0.00 | 87 | 1014.5 |
| 20260509063506 | 23 | 315 | 0.0 | 8.0 | 0.00 | 0.00 | 0.00 | 87 | 1014.5 |
| 20260509063020 | 23 | 314 | 0.0 | 8.0 | 0.00 | 0.00 | 0.00 | 87 | 1014.5 |
| 20260509062511 | 23 | 305 | 1.6 | 6.4 | 0.00 | 0.00 | 0.00 | 87 | 1014.5 |
| 20260509062009 | 23 | 314 | 1.6 | 6.4 | 0.00 | 0.00 | 0.00 | 86 | 1014.6 |
| 20260509061522 | 24 | 330 | 1.6 | 9.7 | 0.00 | 0.00 | 0.00 | 86 | 1014.7 |
| 20260509061007 | 24 | 323 | 3.2 | 9.7 | 0.00 | 0.00 | 0.00 | 86 | 1014.5 |
| 20260509060508 | 24 | 325 | 3.2 | 8.0 | 0.00 | 0.00 | 0.00 | 86 | 1014.7 |
| 20260509060013 | 24 | 317 | 1.6 | 8.0 | 0.00 | 0.00 | 0.00 | 86 | 1014.8 |
| 20260509055507 | 24 | 306 | 3.2 | 8.0 | 0.00 | 0.00 | 0.00 | 86 | 1014.9 |
| 20260509055007 | 24 | 321 | 1.6 | 8.0 | 0.00 | 0.00 | 0.00 | 85 | 1014.9 |
| 20260509054520 | 24 | 312 | 1.6 | 8.0 | 0.00 | 0.00 | 0.00 | 85 | 1014.9 |
| 20260509054005 | 24 | 298 | 0.0 | 6.4 | 0.00 | 0.00 | 0.00 | 85 | 1015.0 |
| 20260509053507 | 24 | 312 | 0.0 | 4.8 | 0.00 | 0.00 | 0.00 | 85 | 1015.1 |
| 20260509053030 | 24 | 296 | 0.0 | 6.4 | 0.00 | 0.00 | 0.00 | 85 | 1015.2 |
| 20260509052008 | 24 | 279 | 0.0 | 6.4 | 0.00 | 0.00 | 0.00 | 84 | 1015.2 |
| 20260509051525 | 24 | 300 | 1.6 | 6.4 | 0.00 | 0.00 | 0.00 | 84 | 1015.3 |
| 20260509051009 | 24 | 310 | 1.6 | 6.4 | 0.00 | 0.00 | 0.00 | 83 | 1015.3 |
| 20260509050505 | 25 | 295 | 1.6 | 6.4 | 0.00 | 0.00 | 0.00 | 83 | 1015.4 |
| 20260509050035 | 25 | 284 | 0.0 | 4.8 | 0.00 | 0.00 | 0.00 | 83 | 1015.4 |
| 20260509045508 | 25 | 297 | 0.0 | 6.4 | 0.00 | 0.00 | 0.00 | 82 | 1015.6 |
| 20260509045004 | 25 | 288 | 1.6 | 6.4 | 0.00 | 0.00 | 0.00 | 82 | 1015.6 |
| 20260509044520 | 25 | 274 | 1.6 | 6.4 | 0.00 | 0.00 | 0.00 | 82 | 1015.6 |
| 20260509044007 | 25 | 336 | 0.0 | 12.9 | 0.00 | 0.00 | 0.00 | 81 | 1015.6 |
| 20260509043504 | 25 | 311 | 1.6 | 12.9 | 0.00 | 0.00 | 0.00 | 81 | 1015.8 |
| 20260509043020 | 25 | 324 | 1.6 | 8.0 | 0.00 | 0.00 | 0.00 | 80 | 1015.8 |
| 20260509042508 | 25 | 298 | 0.0 | 8.0 | 0.00 | 0.00 | 0.00 | 80 | 1015.8 |
| 20260509042008 | 25 | 311 | 3.2 | 14.5 | 0.00 | 0.00 | 0.00 | 79 | 1015.9 |
| 20260509041526 | 25 | 305 | 3.2 | 14.5 | 0.00 | 0.00 | 0.00 | 79 | 1015.8 |
| 20260509041007 | 25 | 313 | 4.8 | 12.9 | 0.00 | 0.00 | 0.00 | 78 | 1015.8 |
| 20260509040507 | 25 | 292 | 3.2 | 9.7 | 0.00 | 0.00 | 0.00 | 78 | 1015.9 |
| 20260509040028 | 25 | 352 | 4.8 | 12.9 | 0.00 | 0.00 | 0.00 | 77 | 1015.9 |
| 20260509035507 | 25 | 292 | 1.6 | 14.5 | 0.00 | 0.00 | 0.00 | 77 | 1015.8 |
| 20260509035007 | 25 | 333 | 4.8 | 14.5 | 0.00 | 0.00 | 0.00 | 76 | 1015.9 |
| 20260509034527 | 26 | 302 | 8.0 | 16.1 | 0.00 | 0.00 | 0.00 | 76 | 1015.9 |
| 20260509034010 | 26 | 329 | 3.2 | 16.1 | 0.00 | 0.00 | 0.00 | 75 | 1015.9 |
| 20260509033507 | 26 | 350 | 4.8 | 14.5 | 0.00 | 0.00 | 0.00 | 73 | 1015.8 |
| 20260509033018 | 26 | 317 | 4.8 | 14.5 | 0.00 | 0.00 | 0.00 | 73 | 1015.9 |
| 20260509032510 | 26 | 341 | 4.8 | 16.1 | 0.00 | 0.00 | 0.00 | 71 | 1015.8 |
| 20260509032007 | 26 | 14 | 4.8 | 16.1 | 0.00 | 0.00 | 0.00 | 71 | 1015.8 |
| 20260509031526 | 26 | 360 | 6.4 | 14.5 | 0.00 | 0.00 | 0.00 | 71 | 1015.7 |
| 20260509031012 | 26 | 360 | 6.4 | 16.1 | 0.00 | 0.00 | 0.00 | 71 | 1015.7 |
| 20260509030507 | 26 | 333 | 8.0 | 17.7 | 0.00 | 0.00 | 0.00 | 70 | 1015.8 |
| 20260509030034 | 26 | 332 | 9.7 | 17.7 | 0.00 | 0.00 | 0.00 | 69 | 1015.8 |
| 20260509025507 | 26 | 317 | 9.7 | 20.9 | 0.00 | 0.00 | 0.00 | 69 | 1015.7 |
| 20260509025011 | 27 | 318 | 9.7 | 20.9 | 0.00 | 0.00 | 0.00 | 69 | 1015.6 |
| 20260509023509 | 27 | 321 | 3.2 | 17.7 | 0.00 | 0.00 | 0.00 | 67 | 1015.7 |
| 20260509023030 | 27 | 352 | 8.0 | 17.7 | 0.00 | 0.00 | 0.00 | 67 | 1015.5 |
| 20260509022508 | 27 | 352 | 8.0 | 17.7 | 0.00 | 0.00 | 0.00 | 67 | 1015.3 |
| 20260509022009 | 27 | 325 | 6.4 | 17.7 | 0.00 | 0.00 | 0.00 | 67 | 1015.2 |
| 20260509021521 | 27 | 331 | 9.7 | 19.3 | 0.00 | 0.00 | 0.00 | 67 | 1015.1 |
| 20260509021007 | 27 | 312 | 6.4 | 19.3 | 0.00 | 0.00 | 0.00 | 66 | 1015.1 |
| 20260509020514 | 27 | 312 | 4.8 | 14.5 | 0.00 | 0.00 | 0.00 | 66 | 1014.9 |
| 20260509020027 | 27 | 292 | 4.8 | 19.3 | 0.00 | 0.00 | 0.00 | 65 | 1014.7 |
| 20260509015507 | 27 | 322 | 6.4 | 19.3 | 0.00 | 0.00 | 0.00 | 65 | 1014.6 |
| 20260509015009 | 27 | 341 | 3.2 | 16.1 | 0.00 | 0.00 | 0.00 | 65 | 1014.6 |
| 20260509014523 | 27 | 302 | 4.8 | 16.1 | 0.00 | 0.00 | 0.00 | 64 | 1014.7 |
| 20260509014010 | 28 | 307 | 4.8 | 14.5 | 0.00 | 0.00 | 0.00 | 64 | 1014.6 |
| 20260509013509 | 28 | 316 | 4.8 | 14.5 | 0.00 | 0.00 | 0.00 | 63 | 1014.4 |
| 20260509012510 | 28 | 339 | 4.8 | 16.1 | 0.00 | 0.00 | 0.00 | 60 | 1014.3 |
| 20260509012012 | 28 | 319 | 4.8 | 17.7 | 0.00 | 0.00 | 0.00 | 60 | 1014.3 |
| 20260509011522 | 28 | 297 | 3.2 | 17.7 | 0.00 | 0.00 | 0.00 | 59 | 1014.3 |
| 20260509011007 | 28 | 319 | 4.8 | 16.1 | 0.00 | 0.00 | 0.00 | 58 | 1014.2 |
| 20260509010511 | 28 | 297 | 6.4 | 16.1 | 0.00 | 0.00 | 0.00 | 59 | 1014.2 |
| 20260509010022 | 28 | 309 | 3.2 | 14.5 | 0.00 | 0.00 | 0.00 | 59 | 1014.3 |
| 20260509005508 | 28 | 295 | 3.2 | 14.5 | 0.00 | 0.00 | 0.00 | 59 | 1014.3 |
| 20260509005010 | 28 | 279 | 3.2 | 17.7 | 0.00 | 0.00 | 0.00 | 59 | 1014.2 |
| 20260509004535 | 29 | 285 | 6.4 | 17.7 | 0.00 | 0.00 | 0.00 | 59 | 1014.1 |
| 20260509004011 | 29 | 288 | 6.4 | 16.1 | 0.00 | 0.00 | 0.00 | 60 | 1014.0 |
| 20260509003508 | 29 | 300 | 6.4 | 20.9 | 0.00 | 0.00 | 0.00 | 60 | 1013.9 |
| 20260509003029 | 29 | 301 | 9.7 | 20.9 | 0.00 | 0.00 | 0.00 | 60 | 1013.8 |
| 20260509002511 | 29 | 313 | 4.8 | 22.5 | 0.00 | 0.00 | 0.00 | 60 | 1013.7 |
| 20260509001526 | 30 | 299 | 8.0 | 22.5 | 0.00 | 0.00 | 0.00 | 59 | 1013.4 |
| 20260509001009 | 30 | 269 | 6.4 | 17.7 | 0.00 | 0.00 | 0.00 | 58 | 1013.4 |
| 20260509000506 | 30 | 286 | 8.0 | 17.7 | 0.00 | 0.00 | 0.00 | 58 | 1013.3 |
| 20260509000032 | 30 | 213 | 9.7 | 20.9 | 0.00 | 0.00 | 0.00 | 57 | 1013.2 |
| 20260508235507 | 30 | 296 | 9.7 | 20.9 | 0.00 | 0.00 | 0.00 | 56 | 1013.2 |
| 20260508235007 | 30 | 288 | 8.0 | 19.3 | 0.00 | 0.00 | 0.00 | 56 | 1013.0 |
| 20260508234507 | 30 | 278 | 9.7 | 19.3 | 0.00 | 0.00 | 0.00 | 56 | 1012.9 |
| 20260508234004 | 31 | 278 | 9.7 | 20.9 | 0.00 | 0.00 | 0.00 | 55 | 1012.8 |
| 20260508233506 | 31 | 268 | 9.7 | 20.9 | 0.00 | 0.00 | 0.00 | 55 | 1012.7 |
| 20260508233012 | 31 | 290 | 9.7 | 19.3 | 0.00 | 0.00 | 0.00 | 54 | 1012.7 |
| 20260508232504 | 31 | 281 | 11.3 | 22.5 | 0.00 | 0.00 | 0.00 | 55 | 1012.7 |
| 20260508232004 | 31 | 212 | 8.0 | 22.5 | 0.00 | 0.00 | 0.00 | 54 | 1012.7 |
| 20260508231516 | 31 | 266 | 8.0 | 17.7 | 0.00 | 0.00 | 0.00 | 54 | 1012.6 |
| 20260508231008 | 32 | 273 | 6.4 | 24.1 | 0.00 | 0.00 | 0.00 | 53 | 1012.5 |
| 20260508230503 | 32 | 252 | 11.3 | 24.1 | 0.00 | 0.00 | 0.00 | 53 | 1012.4 |
| 20260508230015 | 32 | 211 | 9.7 | 24.1 | 0.00 | 0.00 | 0.00 | 52 | 1012.2 |
| 20260508225507 | 32 | 244 | 9.7 | 19.3 | 0.00 | 0.00 | 0.00 | 51 | 1012.3 |
| 20260508225008 | 32 | 231 | 11.3 | 19.3 | 0.00 | 0.00 | 0.00 | 50 | 1012.2 |
| 20260508224008 | 32 | 238 | 6.4 | 14.5 | 0.00 | 0.00 | 0.00 | 50 | 1012.2 |
| 20260508223509 | 33 | 234 | 9.7 | 14.5 | 0.00 | 0.00 | 0.00 | 49 | 1012.1 |
| 20260508223009 | 33 | 245 | 3.2 | 12.9 | 0.00 | 0.00 | 0.00 | 50 | 1012.0 |
| 20260508222505 | 32 | 192 | 6.4 | 12.9 | 0.00 | 0.00 | 0.00 | 50 | 1012.0 |
| 20260508222005 | 32 | 234 | 6.4 | 12.9 | 0.00 | 0.00 | 0.00 | 50 | 1012.0 |
| 20260508221515 | 33 | 226 | 8.0 | 16.1 | 0.00 | 0.00 | 0.00 | 49 | 1012.0 |
| 20260508221004 | 33 | 193 | 4.8 | 16.1 | 0.00 | 0.00 | 0.00 | 47 | 1011.9 |
| 20260508220504 | 34 | 211 | 6.4 | 16.1 | 0.00 | 0.00 | 0.00 | 46 | 1012.0 |
| 20260508220020 | 35 | 228 | 8.0 | 16.1 | 0.00 | 0.00 | 0.00 | 43 | 1012.1 |
| 20260508215504 | 35 | 226 | 9.7 | 16.1 | 0.00 | 0.00 | 0.00 | 42 | 1012.0 |
| 20260508215007 | 36 | 178 | 8.0 | 16.1 | 0.00 | 0.00 | 0.00 | 40 | 1011.9 |
| 20260508214520 | 37 | 221 | 6.4 | 16.1 | 0.00 | 0.00 | 0.00 | 40 | 1011.9 |
| 20260508214006 | 37 | 276 | 9.7 | 19.3 | 0.00 | 0.00 | 0.00 | 38 | 1011.9 |
| 20260508213023 | 37 | 242 | 4.8 | 19.3 | 0.00 | 0.00 | 0.00 | 42 | 1011.8 |
| 20260508212513 | 38 | 178 | 11.3 | 19.3 | 0.00 | 0.00 | 0.00 | 38 | 1011.8 |
| 20260508212005 | 38 | 194 | 8.0 | 17.7 | 0.00 | 0.00 | 0.00 | 39 | 1011.9 |
| 20260508211511 | 38 | 209 | 8.0 | 17.7 | 0.00 | 0.00 | 0.00 | 37 | 1011.8 |
| 20260508211004 | 38 | 244 | 3.2 | 19.3 | 0.00 | 0.00 | 0.00 | 39 | 1011.8 |
| 20260508210505 | 38 | 217 | 8.0 | 19.3 | 0.00 | 0.00 | 0.00 | 37 | 1011.9 |
| 20260508210013 | 38 | 211 | 8.0 | 16.1 | 0.00 | 0.00 | 0.00 | 39 | 1011.9 |
| 20260508205506 | 38 | 199 | 6.4 | 12.9 | 0.00 | 0.00 | 0.00 | 38 | 1011.9 |
| 20260508205010 | 38 | 197 | 6.4 | 12.9 | 0.00 | 0.00 | 0.00 | 38 | 1012.0 |
| 20260508204510 | 38 | 171 | 6.4 | 12.9 | 0.00 | 0.00 | 0.00 | 38 | 1012.0 |
| 20260508204005 | 38 | 179 | 3.2 | 11.3 | 0.00 | 0.00 | 0.00 | 37 | 1012.2 |
| 20260508203508 | 37 | 176 | 3.2 | 11.3 | 0.00 | 0.00 | 0.00 | 39 | 1012.3 |
| 20260508202005 | 38 | 211 | 4.8 | 19.3 | 0.00 | 0.00 | 0.00 | 37 | 1012.6 |
| 20260508201508 | 38 | 265 | 8.0 | 19.3 | 0.00 | 0.00 | 0.00 | 39 | 1012.5 |
| 20260508201005 | 38 | 352 | 3.2 | 14.5 | 0.00 | 0.00 | 0.00 | 37 | 1012.5 |
| 20260508200504 | 38 | 246 | 6.4 | 14.5 | 0.00 | 0.00 | 0.00 | 40 | 1012.5 |
| 20260508200019 | 37 | 223 | 3.2 | 11.3 | 0.00 | 0.00 | 0.00 | 39 | 1012.7 |
| 20260508195504 | 37 | 180 | 1.6 | 11.3 | 0.00 | 0.00 | 0.00 | 39 | 1012.7 |
| 20260508195005 | 37 | 19 | 1.6 | 8.0 | 0.00 | 0.00 | 0.00 | 40 | 1012.8 |
| 20260508194514 | 36 | 143 | 1.6 | 9.7 | 0.00 | 0.00 | 0.00 | 41 | 1012.9 |
| 20260508194004 | 36 | 51 | 1.6 | 12.9 | 0.00 | 0.00 | 0.00 | 39 | 1013.0 |
| 20260508193505 | 36 | 261 | 3.2 | 12.9 | 0.00 | 0.00 | 0.00 | 39 | 1013.1 |
| 20260508193019 | 36 | 49 | 3.2 | 11.3 | 0.00 | 0.00 | 0.00 | 44 | 1013.1 |
| 20260508192512 | 35 | 82 | 3.2 | 11.3 | 0.00 | 0.00 | 0.00 | 46 | 1013.2 |
| 20260508190505 | 36 | 217 | 6.4 | 14.5 | 0.00 | 0.00 | 0.00 | 41 | 1013.6 |